STARLINK-31972, 59923

Orbit data source: Space-Track

STARLINK-31972, 59923 is a payload satellite owned by SpaceX/Seattle (US) in LEO that was launched on Sat, 01 Jun 2024 UTC via an FALCON 9 launch vehicle from the Air Force Eastern Test Range (AFETR). Payload-class satellites include a variety of spacecraft equipped with specific instruments for various scientific and technological missions. These include communications satellites like Starlink; space stations such as the ISS; scientific satellites like the Hubble; Earth observation satellites from companies like Planet Labs, Umbra, and HawkEye 360; GPS; miniature CubeSats for education and research; and military/defense satellites.

Loading next visibility...
Identifier
59923, 2024-106B
Orbit
LEO
Country
Flag of USUS
Related business
Manufacturer
SpaceX/Seattle
Mission
Operational Commercial Communications
Bus & Motor
STARLINK V2M, Unknown motor
Mass
730 kg wet, ~700 kg dry
Launch date (UTC)
2024-06-01 (2 years ago)
Launch vehicle
FALCON 9
Launch site
Air Force Eastern Test Range (AFETR)
Object type
Payload
Rocket body
Debris
Shape & HBR
Box + 2 Pan, 17.7 m
Radar Cross Section
33.884 m², Large (>1 m²)

Expand to show TLE details & history
Last TLE update: 11 hours ago

TLE from 11 hours ago
0 STARLINK-31972
1 59923U 24106B   26036.33649093  .00001488  00000-0  63583-4 0  9995
2 59923  42.9979 155.3326 0001613 266.2541  93.8126 15.27577460 95627
Epoch: 2026-02-05T08:04Z
TLE epoch observation values (Epoch: 2026-02-05T08:04:32.816Z)
Latitude
-0.00002°
Longitude
-101.29434°
Altitude
482.906 km
Speed
7.626 km/s
True Right ascension
10h 21m 19s
True Declination
0° 00' 00"
Sunlit
Object was in full shadow at epoch
Visualization orbit readout
Latitude
Unknown
Longitude
Unknown
Altitude
Unknown
Speed
Unknown
Apparent Right ascension
Unknown
Apparent Declination
Unknown
Sunlit
N/A
Visualization observer readout
Local Sidereal Time
21:33:34
Azimuth
Unknown
Elevation
Unknown
Doppler factor
Unknown
Orbital elements
Apogee altitude
486.109 km
Perigee altitude
483.895 km
Semi-major axis
6,863.139 km
Eccentricity
0.00016
Inclination
42.9979°
RAAN
155.3326°
Arg. of periapsis
266.2541°
True anomaly
93.83104°
Mean anomaly
93.8126°
Eccentric anomaly
93.82182°
Mean motion
3.81732 °/min
Orbital period
94.31 mins
BSTAR
0.000063583
Loading maneuver chart data...
Computing Atmospheric mass density...
Loading historical data...
Loading historical data...
Loading historical data...
Loading historical data...
Loading historical data...
Loading historical data...
Loading historical data...

Documentation

Showing up to 5 results
|